KE5OYL Weather Reports


Display with metric or nautical units.
time (UTC)temp
F
wind
direction
speed
MPH
gust
MPH
rain 1hr
in
rain 24hr
in
rain mn
in
humidity
%
barometer
mb
20260505041607 73 157 5.0 9.0 0.00 0.00 0.00 74 1007.5
20260505041105 73 209 4.0 7.0 0.00 0.00 0.00 74 1007.3
20260505040602 74 156 7.0 9.0 0.00 0.00 0.00 74 1007.2
20260505040059 74 183 6.0 10.0 0.00 0.00 0.00 73 1007.6
20260505035555 74 138 9.0 14.0 0.00 0.00 0.00 73 1007.4
20260505035051 74 180 7.0 13.0 0.00 0.00 0.00 73 1007.1
20260505034548 74 155 8.0 10.0 0.00 0.00 0.00 73 1007.3
20260505034045 74 135 7.0 10.0 0.00 0.00 0.00 72 1007.1
20260505033542 74 132 5.0 8.0 0.00 0.00 0.00 72 1007.1
20260505033040 74 153 5.0 10.0 0.00 0.00 0.00 72 1007.1
20260505032538 74 264 4.0 9.0 0.00 0.00 0.00 71 1007.4
20260505032034 75 179 5.0 11.0 0.00 0.00 0.00 71 1007.2
20260505031531 75 142 5.0 10.0 0.00 0.00 0.00 71 1007.3
20260505031027 75 87 3.0 8.0 0.00 0.00 0.00 71 1007.4
20260505030525 75 127 4.0 11.0 0.00 0.00 0.00 70 1007.5
20260505030021 75 125 4.0 8.0 0.00 0.00 0.00 70 1007.5
20260505025516 75 164 6.0 13.0 0.00 0.00 0.00 70 1007.5
20260505025016 75 116 4.0 11.0 0.00 0.00 0.00 70 1007.2
20260505024512 75 163 5.0 7.0 0.00 0.00 0.00 70 1007.1
20260505024009 75 115 6.0 8.0 0.00 0.00 0.00 69 1006.9
20260505023506 75 169 7.0 8.0 0.00 0.00 0.00 70 1007.3
20260505023004 75 202 7.0 13.0 0.00 0.00 0.00 70 1007.0
20260505022501 75 195 4.0 10.0 0.00 0.00 0.00 69 1006.9
20260505021958 75 146 5.0 9.0 0.00 0.00 0.00 69 1006.8
20260505021455 75 143 5.0 8.0 0.00 0.00 0.00 69 1007.0
20260505020950 75 131 3.0 10.0 0.00 0.00 0.00 69 1007.1
20260505020445 76 187 5.0 8.0 0.00 0.00 0.00 68 1007.1
20260505015943 76 156 5.0 9.0 0.00 0.00 0.00 68 1006.9
20260505015440 76 240 3.0 8.0 0.00 0.00 0.00 68 1007.0
20260505014937 76 217 2.0 14.0 0.00 0.00 0.00 68 1007.0
20260505014434 76 172 6.0 8.0 0.00 0.00 0.00 67 1007.0
20260505013931 76 219 6.0 10.0 0.00 0.00 0.00 67 1007.0
20260505013428 76 198 4.0 9.0 0.00 0.00 0.00 67 1007.0
20260505012926 76 157 8.0 13.0 0.00 0.00 0.00 67 1007.0
20260505012424 77 207 4.0 10.0 0.00 0.00 0.00 66 1006.9
20260505011920 77 191 4.0 8.0 0.00 0.00 0.00 66 1006.7
20260505011416 77 220 4.0 13.0 0.00 0.00 0.00 65 1006.9
20260505010913 77 167 7.0 13.0 0.00 0.00 0.00 65 1006.9
20260505010409 77 213 4.0 8.0 0.00 0.00 0.00 64 1006.9
20260505005905 77 168 7.0 11.0 0.00 0.00 0.00 64 1006.8
20260505005402 77 149 8.0 14.0 0.00 0.00 0.00 63 1006.8
20260505004859 77 184 8.0 16.0 0.00 0.00 0.00 63 1007.1
20260505004355 78 190 8.0 16.0 0.00 0.00 0.00 63 1006.9
20260505003853 78 197 7.0 24.0 0.00 0.00 0.00 63 1007.0
20260505003350 78 203 9.0 14.0 0.00 0.00 0.00 63 1006.9
20260505002846 78 190 9.0 18.0 0.00 0.00 0.00 63 1007.2
20260505002343 78 248 7.0 15.0 0.00 0.00 0.00 62 1006.9
20260505001841 78 208 11.0 11.0 0.00 0.00 0.00 62 1007.3
20260505001338 78 217 10.0 18.0 0.00 0.00 0.00 62 1007.1
20260505000835 78 185 12.0 16.0 0.00 0.00 0.00 61 1007.3
20260505000333 78 174 7.0 20.0 0.00 0.00 0.00 61 1007.2
20260504235829 78 174 6.0 13.0 0.00 0.00 0.00 61 1007.1
20260504235327 78 107 10.0 16.0 0.00 0.00 0.00 61 1007.2
20260504234823 78 182 10.0 14.0 0.00 0.00 0.00 61 1007.3
20260504234321 78 175 5.0 16.0 0.00 0.00 0.00 61 1007.5
20260504233817 78 199 11.0 18.0 0.00 0.00 0.00 60 1007.4
20260504233313 79 182 11.0 17.0 0.00 0.00 0.00 61 1007.7
20260504232810 79 158 8.0 20.0 0.00 0.00 0.00 61 1007.4
20260504232307 79 267 9.0 13.0 0.00 0.00 0.00 61 1007.4
20260504231804 79 154 8.0 13.0 0.00 0.00 0.00 60 1007.4
20260504231300 79 219 9.0 16.0 0.00 0.00 0.00 60 1007.4
20260504230756 79 260 8.0 13.0 0.00 0.00 0.00 59 1007.5
20260504230254 79 212 14.0 17.0 0.00 0.00 0.00 59 1007.8
20260504225753 79 146 12.0 20.0 0.00 0.00 0.00 59 1007.7
20260504225249 79 188 9.0 20.0 0.00 0.00 0.00 59 1007.7
20260504224746 80 171 17.0 26.0 0.00 0.00 0.00 59 1007.7
20260504224243 80 198 12.0 18.0 0.00 0.00 0.00 58 1008.0
20260504223740 81 187 13.0 22.0 0.00 0.00 0.00 57 1007.8
20260504223235 81 194 8.0 14.0 0.00 0.00 0.00 57 1007.5
20260504222733 81 201 10.0 21.0 0.00 0.00 0.00 58 1007.6
20260504222229 80 176 7.0 16.0 0.00 0.00 0.00 58 1008.0
20260504221727 80 176 12.0 15.0 0.00 0.00 0.00 58 1007.8
20260504221224 80 188 11.0 13.0 0.00 0.00 0.00 58 1007.9
20260504220720 80 166 10.0 20.0 0.00 0.00 0.00 58 1007.9
20260504220218 80 234 11.0 18.0 0.00 0.00 0.00 56 1007.9
20260504215714 80 226 8.0 16.0 0.00 0.00 0.00 57 1008.2
20260504215212 80 191 6.0 11.0 0.00 0.00 0.00 57 1008.4
20260504214707 81 155 11.0 14.0 0.00 0.00 0.00 56 1008.1
20260504214204 80 206 4.0 15.0 0.00 0.00 0.00 58 1008.2
20260504213701 81 211 11.0 20.0 0.00 0.00 0.00 56 1008.3
20260504213157 81 201 13.0 17.0 0.00 0.00 0.00 55 1008.5
20260504212654 81 166 10.0 16.0 0.00 0.00 0.00 55 1008.5
20260504212150 81 176 9.0 13.0 0.00 0.00 0.00 56 1008.4
20260504211648 82 164 8.0 10.0 0.00 0.00 0.00 54 1008.5
20260504211144 81 194 7.0 11.0 0.00 0.00 0.00 54 1008.7
20260504210642 82 204 10.0 20.0 0.00 0.00 0.00 55 1008.6
20260504210138 81 239 4.0 14.0 0.00 0.00 0.00 55 1008.7
20260504205636 80 167 7.0 16.0 0.00 0.00 0.00 56 1009.0
20260504205133 81 160 13.0 18.0 0.00 0.00 0.00 55 1009.1
20260504204631 80 204 14.0 17.0 0.00 0.00 0.00 55 1009.0
20260504204130 80 187 8.0 11.0 0.00 0.00 0.00 56 1009.3
20260504203628 80 149 13.0 17.0 0.00 0.00 0.00 56 1009.1
20260504203125 80 162 11.0 18.0 0.00 0.00 0.00 57 1009.4
20260504202620 79 191 12.0 20.0 0.00 0.00 0.00 57 1009.7
20260504202117 80 156 11.0 15.0 0.00 0.00 0.00 56 1009.7
20260504201614 79 212 7.0 16.0 0.00 0.00 0.00 57 1009.9
20260504201112 80 186 13.0 21.0 0.00 0.00 0.00 56 1010.1
20260504200609 80 177 6.0 11.0 0.00 0.00 0.00 55 1010.3
20260504200105 79 139 13.0 17.0 0.00 0.00 0.00 56 1010.2
20260504195601 80 202 10.0 16.0 0.00 0.00 0.00 55 1010.3
20260504195057 80 207 7.0 14.0 0.00 0.00 0.00 55 1010.5
20260504194554 79 200 10.0 15.0 0.00 0.00 0.00 55 1010.4
20260504194050 79 172 7.0 15.0 0.00 0.00 0.00 55 1010.5
20260504193546 79 230 13.0 18.0 0.00 0.00 0.00 55 1010.3
20260504193045 79 225 11.0 17.0 0.00 0.00 0.00 55 1010.5
20260504192543 79 133 9.0 15.0 0.00 0.00 0.00 55 1010.6
20260504192041 78 211 11.0 15.0 0.00 0.00 0.00 56 1010.7
20260504191538 78 206 12.0 16.0 0.00 0.00 0.00 55 1010.8
20260504191034 79 169 9.0 18.0 0.00 0.00 0.00 54 1011.1
20260504190531 79 213 10.0 13.0 0.00 0.00 0.00 53 1010.8
20260504190027 78 219 13.0 15.0 0.00 0.00 0.00 54 1011.2
20260504185524 78 214 9.0 16.0 0.00 0.00 0.00 55 1011.0
20260504185021 78 162 13.0 20.0 0.00 0.00 0.00 55 1011.1
20260504184516 77 205 12.0 20.0 0.00 0.00 0.00 55 1011.3
20260504184012 78 211 9.0 21.0 0.00 0.00 0.00 55 1011.1
20260504183509 78 219 6.0 13.0 0.00 0.00 0.00 54 1011.1
20260504183008 78 167 9.0 11.0 0.00 0.00 0.00 53 1011.2
20260504182504 77 187 10.0 16.0 0.00 0.00 0.00 54 1011.3
20260504182001 77 206 8.0 15.0 0.00 0.00 0.00 54 1011.8
20260504181458 77 201 12.0 21.0 0.00 0.00 0.00 55 1011.5
20260504180956 77 140 10.0 18.0 0.00 0.00 0.00 55 1011.8
20260504180455 77 202 15.0 21.0 0.00 0.00 0.00 54 1011.8
20260504175953 77 240 11.0 18.0 0.00 0.00 0.00 54 1011.5
20260504175450 77 178 6.0 13.0 0.00 0.00 0.00 54 1012.0
20260504174947 76 136 7.0 17.0 0.00 0.00 0.00 54 1012.1
20260504174445 77 225 5.0 14.0 0.00 0.00 0.00 54 1012.0
20260504173942 76 189 9.0 16.0 0.00 0.00 0.00 54 1012.2
20260504173438 76 179 6.0 15.0 0.00 0.00 0.00 54 1012.3
20260504172936 76 178 11.0 18.0 0.00 0.00 0.00 54 1012.4
20260504172431 76 190 9.0 14.0 0.00 0.00 0.00 52 1012.5
20260504171928 76 135 6.0 17.0 0.00 0.00 0.00 52 1012.6
20260504171426 76 170 9.0 26.0 0.00 0.00 0.00 52 1012.8
20260504170922 76 188 11.0 22.0 0.00 0.00 0.00 50 1012.7
20260504170419 75 174 10.0 16.0 0.00 0.00 0.00 49 1013.0
20260504160338 72 147 14.0 22.0 0.00 0.00 0.00 55 1013.5
20260504150802 69 230 13.0 17.0 0.00 0.00 0.00 62 1014.3
20260504150259 70 157 11.0 16.0 0.00 0.00 0.00 62 1014.2
20260504141229 67 229 13.0 16.0 0.00 0.00 0.00 68 1014.4
20260504140725 66 208 9.0 15.0 0.00 0.00 0.00 69 1014.7
20260504140221 66 154 6.0 11.0 0.00 0.00 0.00 69 1014.8
20260504130650 63 218 8.0 9.0 0.00 0.00 0.00 73 1014.5
20260504130146 63 146 6.0 11.0 0.00 0.00 0.00 74 1014.5
20260504120110 62 250 10.0 10.0 0.00 0.00 0.00 74 1014.0
20260504110537 62 207 8.0 13.0 0.00 0.00 0.00 73 1013.9
20260504100448 63 189 7.0 9.0 0.00 0.00 0.00 70 1014.0
20260504081841 65 199 5.0 14.0 0.00 0.00 0.00 65 1014.3
20260504081338 65 245 7.0 14.0 0.00 0.00 0.00 64 1014.5
20260504080834 65 192 7.0 13.0 0.00 0.00 0.00 64 1014.4
20260504080331 65 199 5.0 8.0 0.00 0.00 0.00 63 1014.6
20260504070258 67 159 5.0 9.0 0.00 0.00 0.00 55 1015.3
20260504060219 68 221 7.0 9.0 0.00 0.00 0.00 56 1016.0
20260504050646 69 198 5.0 9.0 0.00 0.00 0.00 54 1016.4
20260504050143 69 239 3.0 8.0 0.00 0.00 0.00 55 1016.7
20260504045641 69 219 4.0 7.0 0.00 0.00 0.00 54 1016.6
20260504045141 69 208 6.0 9.0 0.00 0.00 0.00 53 1016.6
20260504044639 69 179 6.0 13.0 0.00 0.00 0.00 53 1016.7
20260504044135 69 205 4.0 8.0 0.00 0.00 0.00 53 1016.7
20260504043632 69 205 4.0 6.0 0.00 0.00 0.00 53 1016.6
20260504043130 69 216 8.0 10.0 0.00 0.00 0.00 53 1016.7
20260504042627 70 206 8.0 9.0 0.00 0.00 0.00 53 1016.7
20260504042123 70 217 5.0 8.0 0.00 0.00 0.00 52 1016.8